STARLINK-30235, 57294

Orbit data source: Space-Track

STARLINK-30235, 57294 is a payload satellite owned by SpaceX/Seattle (US) in LEO that was launched on Mon, 10 Jul 2023 UTC via an FALCON 9 launch vehicle from the Air Force Eastern Test Range (AFETR). Payload-class satellites include a variety of spacecraft equipped with specific instruments for various scientific and technological missions. These include communications satellites like Starlink; space stations such as the ISS; scientific satellites like the Hubble; Earth observation satellites from companies like Planet Labs, Umbra, and HawkEye 360; GPS; miniature CubeSats for education and research; and military/defense satellites.

Loading next visibility...
Identifier
57294, 2023-096E
Orbit
LEO
Country
Flag of USUS
Related business
Manufacturer
SpaceX/Seattle
Mission
Operational Commercial Communications
Bus & Motor
STARLINK V2M, Unknown motor
Mass
730 kg wet, ~700 kg dry
Launch date (UTC)
2023-07-10 (2 years ago)
Launch vehicle
FALCON 9
Launch site
Air Force Eastern Test Range (AFETR)
Object type
Payload
Rocket body
Debris
Shape & HBR
Box + 2 Pan, 17.7 m
Radar Cross Section
33.884 m², Large (>1 m²)

Expand to show TLE details & history
Last TLE update: 1 day ago

TLE from 1 day ago
0 STARLINK-30235
1 57294U 23096E   25340.14669788 -.00000088  00000-0  85578-5 0  9995
2 57294  43.0050  11.6620 0001272 282.5895  77.4806 15.02532518133548
Epoch: 2025-12-06T03:31Z
TLE epoch observation values (Epoch: 2025-12-06T03:31:14.696Z)
Latitude
0.00003°
Longitude
-116.32782°
Altitude
558.678 km
Speed
7.584 km/s
True Right ascension
00h 46m 38s
True Declination
0° 00' 00"
Sunlit
Object was in full shadow at epoch
Visualization orbit readout
Latitude
Unknown
Longitude
Unknown
Altitude
Unknown
Speed
Unknown
Apparent Right ascension
Unknown
Apparent Declination
Unknown
Sunlit
N/A
Visualization observer readout
Local Sidereal Time
12:21:00
Azimuth
Unknown
Elevation
Unknown
Doppler factor
Unknown
Orbital elements
Apogee altitude
561.896 km
Perigee altitude
560.131 km
Semi-major axis
6,939.15 km
Eccentricity
0.00013
Inclination
43.005°
RAAN
11.662°
Arg. of periapsis
282.5895°
True anomaly
77.49483°
Mean anomaly
77.4806°
Eccentric anomaly
77.48771°
Mean motion
3.75477 °/min
Orbital period
95.88 mins
BSTAR
0.0000085578
Loading maneuver chart data...
Computing Atmospheric mass density...
Loading historical data...
Loading historical data...
Loading historical data...
Loading historical data...
Loading historical data...
Loading historical data...
Loading historical data...

Documentation

Showing up to 5 results
|